Regional Weather Roundup
Issued by NWS Goodland, KS

Home | Current Version | Previous Version | Graphics & Text | Print | Product List | Glossary On
Versions: 1 2 3 4 5 6 7 8 9 10 11 12 13 14 15 16 17 18 19 20 21 22 23 24 25 26 27 28 29 30 31 32 33 34 35 36 37 38 39 40 41 42 43 44 45 46 47 48 49 50
000
ASUS43 KGLD 301408
RWRGLD

GOODLAND FORECAST AREA HOURLY WEATHER ROUNDUP
NATIONAL WEATHER SERVICE GOODLAND KS
800 AM MDT THU JUL 30 2015

...OFFICIAL OBSERVATIONS...

CITY           SKY/WX    TMP DP  RH WIND       PRES   REMARKS
GOODLAND KS    SUNNY     69  64  84 S9        30.30R
HILL CITY KS   PTSUNNY   71  63  75 CALM      30.28R
IMPERIAL NEB   SUNNY     67  55  65 CALM      30.28R
MCCOOK NEB     SUNNY     68  60  75 CALM      30.27R
AKRON CO       MOSUNNY   68  63  84 S13       30.32R
BURLINGTON CO  CLOUDY    68  64  87 S12       30.33R
LIMON CO       CLOUDY    62  62 100 S9        30.38S
$$

...UNOFFICIAL OBSERVATIONS...

CITY           SKY/WX    TMP DP  RH WIND       PRES   REMARKS
COLBY KS       SUNNY     70  66  88 S8        30.31R
NORTON KS      SUNNY     73  63  68 S9        30.26S
SHARON SPRINGS   N/A     68  65  92 S12         N/A
KIT CARSON CO    N/A     69  64  85 MISG        N/A
YUMA CO          N/A     67  64  89 SW12        N/A
$$


USA.gov is the U.S. government's official web portal to all federal, state and local government web resources and services.